Home   Weather   Sanikiluaq   Past weeks
Flag for Canada

Past Weather in Sanikiluaq, Nunavut, Canada — Yesterday and Last 2 Weeks

Now
46 °F

Fog.


Feels Like: 43 °F
Forecast: 44 / 36 °F
Wind: 7 mph from Southwest

Location: Kuujjuarapik

Current Time: Jul 16, 2019 at 8:57:51 pm

Latest Report: Jul 16, 2019 at 8:00 pm


Visibility: 1 mi

Pressure: 29.27 "Hg

Humidity: 93%

Dew Point: 45 °F

Location of SanikiluaqLocation

Past Weather in Sanikiluaq — Graph

°F

Sanikiluaq Temperature Yesterday

Maximum temperature yesterday: 52 °F (at 5:00 pm)
Minimum temperature yesterday: 37 °F (at 2:06 am)
Average temperature yesterday: 43 °F

High & Low Weather Summary for the Past Weeks

 TemperatureHumidityPressure
High75 °F (Jul 9, 6:00 pm)100% (Jul 1, 9:10 pm)30.06 "Hg (Jul 1, 9:10 pm)
Low34 °F (Jul 6, 8:14 am)39% (Jul 9, 6:00 pm)29.23 "Hg (Jul 16, 2:00 pm)
Average48 °F90%29.81 "Hg
* Reported Jul 1 7:00 pm — Jul 16 7:06 pm, Sanikiluaq. Weather by CustomWeather, © 2019

Note: Actual official high and low records may vary slightly from our data, if they occured in-between our weather recording intervals... More about our weather records

Advertising

Sanikiluaq Weather History for the Previous 24 Hours

Scroll right to see more
 ConditionsComfort  
Time TempWeatherWind HumidityBarometerVisibility
7:06 pm
Tue, Jul 16
46 °FLight rain. Fog.13 mph100%29.27 "Hg1 mi
6:42 pm48 °FLight rain. Fog.7 mph100%29.26 "Hg1 mi
6:31 pm46 °FLight rain. Fog.5 mph100%29.26 "Hg0 mi
6:00 pm46 °FFog.9 mph100%29.26 "Hg0 mi
5:53 pm48 °FFog.10 mph94%29.26 "Hg0 mi
5:44 pm50 °FFog.10 mph100%29.25 "Hg0 mi
5:24 pm57 °FLight rain. Fog.5 mph94%29.23 "Hg2 mi
4:39 pm54 °FFog.5 mph100%29.24 "Hg6 mi
4:00 pm50 °FLight rain. Fog.7 mph94%29.26 "Hg1 mi
3:47 pm50 °FLight rain. Fog.6 mph100%29.27 "Hg1 mi
3:18 pm52 °FLight rain. Fog.2 mph94%29.25 "Hg0 mi
3:12 pm57 °FLight rain. Fog.6 mph88%29.25 "Hg0 mi
2:00 pm70 °FMostly cloudy.15 mph88%29.23 "Hg9 mi
1:51 pm70 °FMostly cloudy.12 mph88%29.24 "Hg9 mi
1:28 pm70 °FMore clouds than sun.13 mph88%29.24 "Hg9 mi
1:00 pm68 °FOvercast.13 mph94%29.25 "Hg9 mi
12:18 pm68 °FOvercast.13 mph88%29.27 "Hg9 mi
12:00 pm68 °FLight rain. Mostly cloudy.12 mph88%29.28 "Hg9 mi
11:10 am64 °FLight rain. Overcast.7 mph94%29.30 "Hg9 mi
10:54 am63 °FThunderstorms. Overcast.9 mph100%29.31 "Hg9 mi
10:40 am63 °FMostly cloudy.9 mph94%29.31 "Hg9 mi
10:15 am61 °FHeavy rain. Fog.12 mph94%29.32 "Hg3 mi
9:00 am59 °FMostly cloudy.14 mph94%29.37 "Hg9 mi
8:33 am59 °FLight rain. Cloudy.15 mph94%29.39 "Hg9 mi
8:25 am57 °FMostly cloudy.14 mph100%29.39 "Hg9 mi
8:04 am57 °FLight rain. Cloudy.14 mph94%29.40 "Hg9 mi
7:54 am57 °FMostly cloudy.14 mph94%29.40 "Hg9 mi
7:21 am57 °FLight rain. Fog.14 mph94%29.43 "Hg6 mi
7:00 am57 °FLight rain. Cloudy.15 mph94%29.44 "Hg9 mi
6:43 am57 °FHeavy rain. Fog.18 mph94%29.44 "Hg5 mi
6:00 am57 °FLight rain. Overcast.17 mph88%29.47 "Hg9 mi
5:21 am55 °FLight rain. Fog.16 mph94%29.50 "Hg6 mi
5:08 am55 °FRain. Fog.18 mph94%29.51 "Hg3 mi
4:32 am57 °FRain. Fog.15 mph88%29.55 "Hg6 mi
4:25 am57 °FRain. Fog.13 mph88%29.55 "Hg3 mi
4:00 am57 °FLight rain. Mostly cloudy.13 mph88%29.56 "Hg9 mi
3:00 am59 °FLight rain. Overcast.16 mph77%29.59 "Hg9 mi
2:52 am59 °FLight rain. Mostly cloudy.15 mph77%29.60 "Hg9 mi
2:31 am59 °FPassing clouds.16 mph77%29.61 "Hg9 mi
2:14 am59 °FLight rain. Overcast.16 mph77%29.62 "Hg9 mi
1:47 am59 °FMostly cloudy.15 mph77%29.65 "Hg9 mi
1:36 am59 °FLight rain. Mostly cloudy.15 mph77%29.65 "Hg9 mi
1:01 am57 °FLight rain. Mostly cloudy.15 mph82%29.68 "Hg9 mi
12:32 am55 °FLight rain. Mostly cloudy.14 mph82%29.70 "Hg9 mi
12:11 am48 °FLight rain. Overcast.2 mph87%29.72 "Hg9 mi
12:00 am48 °FOvercast.2 mph94%29.73 "Hg8 mi
11:23 pm
Mon, Jul 15
50 °FOvercast.2 mph94%29.74 "Hg9 mi
11:02 pm48 °FLight rain. Mostly cloudy.No wind87%29.76 "Hg9 mi
10:00 pm46 °FPartly cloudy.2 mph93%29.78 "Hg9 mi
9:00 pm48 °FSunny.5 mph87%29.80 "Hg9 mi
8:00 pm50 °FSunny.9 mph82%29.82 "Hg9 mi
Weather by CustomWeather, © 2019

See weather overview

LIVE PARTIAL LUNAR ECLIPSE – Watch the eclipse as it happens